Weather in Panzhihua

China     23°02′14″N   102°34′30″E
temp.,
°C
wind,
m/s
gust,
m/s
humid.,
%
clouds,
%
prec.,
mm/h
press.,
hPa
HPBL,
m
9 december, thu
thu923:00+10s01980 0.0 102312
02:00+9ese01981 0.0 102211
05:00+8nnw00982 0.0 102111
08:00+8ene00974 0.0 102313
11:00+16se12631 0.0 1023606
14:00+19sse235590 0.0 10191525
17:00+17sse127267 0.1 1018254
20:00+13s118789 0.2 102120
10 december, fri
fri1023:00+10sw01960 0.0 102211
02:00+9sw11963 0.0 102114
05:00+9sw11960 0.0 102015
08:00+8ssw11975 0.0 102118
11:00+16sse22650 0.0 1020673
14:00+19sse235879 0.0 10151327
17:00+17s237335 0.1 1015463
20:00+12sse119511 0.1 101837
11 december, sat
sat1123:00+11ssw019924 0.0 102014
02:00+10ssw019918 0.0 101914
05:00+10sse019924 0.0 101815
08:00+9se119956 0.0 102046
11:00+15se128046 0.0 1021457
14:00+18se126886 0.1 1017949
17:00+16se128366 0.2 1016349
20:00+12ese129848 0.3 101974
12 december, sun
sun1223:00+11e129966 0.0 102174
02:00+11e129988 0.0 1021139
05:00+12e1399100 0.0 1020174
08:00+11e1298100 0.1 1022170
11:00+12e129798 0.3 1023247
14:00+12ene119892 1.2 1020116
17:00+14e129183 0.2 1018440
20:00+12e119789 0.4 102041
13 december, mon
mon1323:00+12ese0199100 0.2 102142
02:00+11ese13100100 0.4 1020136
05:00+11se1210096 0.1 1019193
08:00+11se1299100 0.1 1020219
11:00+12sse129898 0.2 1021240
14:00+15s128152 0.6 1016755
17:00+15s128949 0.8 1015387
20:00+12s119853 1.3 101734